Location: ??????
(30.5519°N, 47.7720°E)
Time: 17:02:40
(UTC+00:00)

Iridium 4 Rocket - Pass Details

Date: 24 January 2021
Orbit: 583 x 906 km, 86.9° (Epoch: 01 March)

Event Time Altitude Azimuth Distance (km) Brightness Sun altitude
Rises 15:50:48 0° 356° (N) 3,370 6.8 -19.9°
Reaches altitude 10° 15:53:17 10° 354° (N) 2,388 6.0 -20.5°
Maximum altitude 15:58:36 69° 272° (W) 804 3.7 -21.6°
Drops below altitude 10° 16:03:23 10° 189° (S) 2,163 6.0 -22.6°
Sets 16:05:34 0° 187° (S) 3,029 6.8 -23.1°
